Weather History for Cody, WY

Change the Weather History Date:

Friday, January 18, 2013

  Actual Average Record
Temperature  
Mean Temperature 44 °F -  
Max Temperature 51 °F 38 °F 59 °F (1920)
Min Temperature 37 °F 15 °F -28 °F (1943)
Degree Days  
Heating Degree Days 21    
Moisture  
Dew Point 11 °F    
Average Humidity 25    
Maximum Humidity 33    
Minimum Humidity 19    
Precipitation  
Precipitation 0.00 in - - ()
Sea Level Pressure  
Sea Level Pressure 30.03 in    
Wind  
Wind Speed 16 mph (West)    
Max Wind Speed 24 mph    
Max Gust Speed 39 mph    
Visibility 10 miles    
Events      
Averages and records for this station are not official NWS values.
T = Trace of Precipitation, MM = Missing Value Source: NWS Daily Summary

Daily Weather History Graph

Daily Weather History Graph

Search for Another Location

Airport:

Trip Planner

Search our weather history database for the weather conditions in past years. The results will help you decide how hot, cold, wet, or windy it might be!

Date:

Astronomy

Jan. 18, 2013 Rise Set
Actual Time 7:47 AM MST 5:06 PM MST
Civil Twilight 7:15 AM MST 5:38 PM MST
Nautical Twilight 6:39 AM MST 6:14 PM MST
Astronomical Twilight 6:04 AM MST 6:49 PM MST
Moon 11:07 AM MST (1/18) 12:18 AM MST (1/18)
Length of Visible Light 10h 23m
Length of Day
9h 19m
Waxing Crescent, 48% of the Moon is Illuminated
Jan 18
Waxing Crescent
Jan 18
First Quarter
Jan 26
Full
Feb 3
Last Quarter
Feb 10
New

Hourly Weather History & Observations

Time (MST) Temp. Windchill Dew Point Humidity Pressure Visibility Wind Dir Wind Speed Gust Speed Precip Events Conditions
12:15 AM 42.8 °F 34.0 °F 10.4 °F 27% 30.11 in 10.0 mi West 20.7 mph 29.9 mph N/A   Clear
12:35 AM 42.8 °F 35.1 °F 10.4 °F 27% 30.09 in 10.0 mi West 16.1 mph 26.5 mph N/A   Clear
12:55 AM 44.6 °F 36.9 °F 10.4 °F 25% 30.09 in 10.0 mi WSW 18.4 mph 31.1 mph N/A   Clear
1:15 AM 42.8 °F 34.0 °F 12.2 °F 29% 30.09 in 10.0 mi WSW 20.7 mph 28.8 mph N/A   Clear
1:35 AM 44.6 °F 36.4 °F 12.2 °F 27% 30.09 in 10.0 mi WSW 20.7 mph 38.0 mph N/A   Clear
1:55 AM 44.6 °F 36.6 °F 12.2 °F 27% 30.10 in 10.0 mi SW 19.6 mph 32.2 mph N/A   Clear
2:15 AM 44.6 °F 36.9 °F 12.2 °F 27% 30.08 in 10.0 mi SW 18.4 mph 28.8 mph N/A   Clear
2:35 AM 44.6 °F 37.8 °F 10.4 °F 25% 30.09 in 10.0 mi West 15.0 mph 19.6 mph N/A   Clear
2:55 AM 44.6 °F 39.2 °F 10.4 °F 25% 30.11 in 10.0 mi WNW 10.4 mph 17.3 mph N/A   Clear
3:15 AM 44.6 °F 39.7 °F 10.4 °F 25% 30.11 in 10.0 mi West 9.2 mph 18.4 mph N/A   Clear
3:55 AM 44.6 °F 38.8 °F 10.4 °F 25% 30.10 in 10.0 mi West 11.5 mph 23.0 mph N/A   Clear
4:15 AM 42.8 °F 35.4 °F 10.4 °F 27% 30.07 in 10.0 mi WSW 15.0 mph 26.5 mph N/A   Clear
4:35 AM 44.6 °F 36.6 °F 10.4 °F 25% 30.06 in 10.0 mi WSW 19.6 mph 27.6 mph N/A   Clear
4:55 AM 44.6 °F 38.4 °F 12.2 °F 27% 30.09 in 10.0 mi West 12.7 mph 29.9 mph N/A   Clear
5:15 AM 44.6 °F 38.1 °F 10.4 °F 25% 30.08 in 10.0 mi West 13.8 mph 18.4 mph N/A   Clear
5:35 AM 44.6 °F 37.8 °F 10.4 °F 25% 30.06 in 10.0 mi West 15.0 mph 27.6 mph N/A   Clear
5:55 AM 44.6 °F 38.1 °F 10.4 °F 25% 30.05 in 10.0 mi West 13.8 mph 24.2 mph N/A   Clear
6:15 AM 44.6 °F 36.4 °F 10.4 °F 25% 30.05 in 10.0 mi West 20.7 mph 33.4 mph N/A   Clear
6:35 AM 44.6 °F 35.7 °F 10.4 °F 25% 30.04 in 10.0 mi WSW 24.2 mph 31.1 mph N/A   Clear
6:55 AM 44.6 °F 37.4 °F 8.6 °F 23% 30.03 in 10.0 mi WSW 16.1 mph 29.9 mph N/A   Clear
7:15 AM 44.6 °F 36.9 °F 8.6 °F 23% 30.03 in 10.0 mi WSW 18.4 mph 26.5 mph N/A   Clear
7:35 AM 44.6 °F 37.2 °F 10.4 °F 25% 30.03 in 10.0 mi West 17.3 mph 33.4 mph N/A   Clear
8:15 AM 44.6 °F 35.7 °F 10.4 °F 25% 30.01 in 10.0 mi WSW 24.2 mph 35.7 mph N/A   Clear
8:35 AM 46.4 °F 39.5 °F 8.6 °F 22% 30.04 in 10.0 mi West 17.3 mph 34.5 mph N/A   Clear
8:55 AM 46.4 °F 38.3 °F 10.4 °F 23% 30.03 in 10.0 mi West 23.0 mph 35.7 mph N/A   Clear
9:15 AM 48.2 °F - 8.6 °F 20% 30.03 in 10.0 mi West 13.8 mph 31.1 mph N/A   Clear
9:35 AM 48.2 °F - 10.4 °F 22% 30.04 in 10.0 mi WSW 20.7 mph 33.4 mph N/A   Clear
9:55 AM 48.2 °F - 8.6 °F 20% 30.05 in 10.0 mi West 21.9 mph 33.4 mph N/A   Clear
10:15 AM 48.2 °F - 8.6 °F 20% 30.04 in 10.0 mi WSW 20.7 mph 39.1 mph N/A   Clear
10:35 AM 48.2 °F - 10.4 °F 22% 30.04 in 10.0 mi WSW 23.0 mph 33.4 mph N/A   Clear
10:55 AM 48.2 °F - 10.4 °F 22% 30.04 in 10.0 mi WSW 20.7 mph 29.9 mph N/A   Clear
11:15 AM 48.2 °F - 10.4 °F 22% 30.04 in 10.0 mi WSW 9.2 mph - N/A   Clear
11:35 AM 48.2 °F - 12.2 °F 24% 30.04 in 10.0 mi West 8.1 mph - N/A   Clear
12:15 PM 48.2 °F - 10.4 °F 22% 30.01 in 10.0 mi West 8.1 mph 23.0 mph N/A   Clear
12:35 PM 46.4 °F 39.8 °F 12.2 °F 25% 30.00 in 10.0 mi West 16.1 mph 23.0 mph N/A   Clear
12:55 PM 48.2 °F - 10.4 °F 22% 29.99 in 10.0 mi West 13.8 mph 21.9 mph N/A   Clear
1:15 PM 48.2 °F - 10.4 °F 22% 29.98 in 10.0 mi WNW 13.8 mph 29.9 mph N/A   Clear
1:35 PM 48.2 °F - 10.4 °F 22% 29.98 in 10.0 mi WNW 9.2 mph 18.4 mph N/A   Clear
1:55 PM 48.2 °F - 12.2 °F 24% 29.98 in 10.0 mi WNW 4.6 mph - N/A   Clear
2:15 PM 46.4 °F 42.4 °F 14.0 °F 27% 29.97 in 10.0 mi NW 8.1 mph - N/A   Clear
2:35 PM 51.8 °F - 10.4 °F 19% 29.97 in 10.0 mi West 13.8 mph 33.4 mph N/A   Clear
2:55 PM 48.2 °F - 10.4 °F 22% 29.97 in 10.0 mi West 18.4 mph 27.6 mph N/A   Clear
3:15 PM 50.0 °F - 10.4 °F 20% 29.99 in 10.0 mi West 8.1 mph 23.0 mph N/A   Clear
3:35 PM 50.0 °F - 10.4 °F 20% 30.00 in 10.0 mi West 13.8 mph 25.3 mph N/A   Clear
3:55 PM 50.0 °F - 12.2 °F 22% 29.99 in 10.0 mi WSW 16.1 mph 21.9 mph N/A   Clear
4:15 PM 48.2 °F - 10.4 °F 22% 29.99 in 10.0 mi West 18.4 mph 24.2 mph N/A   Clear
4:35 PM 48.2 °F - 10.4 °F 22% 29.99 in 10.0 mi WSW 12.7 mph 25.3 mph N/A   Clear
5:35 PM 46.4 °F 40.7 °F 10.4 °F 23% 30.00 in 10.0 mi WSW 12.7 mph 23.0 mph N/A   Clear
5:55 PM 46.4 °F 40.7 °F 10.4 °F 23% 29.99 in 10.0 mi WSW 12.7 mph 21.9 mph N/A   Clear
6:15 PM 46.4 °F 41.5 °F 10.4 °F 23% 30.00 in 10.0 mi WSW 10.4 mph 24.2 mph N/A   Clear
6:35 PM 46.4 °F 41.9 °F 10.4 °F 23% 29.99 in 10.0 mi West 9.2 mph 25.3 mph N/A   Clear
6:55 PM 46.4 °F 42.9 °F 10.4 °F 23% 29.98 in 10.0 mi West 6.9 mph 19.6 mph N/A   Clear
7:15 PM 44.6 °F 38.8 °F 10.4 °F 25% 29.98 in 10.0 mi NE 11.5 mph 16.1 mph N/A   Clear
7:35 PM 46.4 °F 41.1 °F 10.4 °F 23% 29.99 in 10.0 mi NE 11.5 mph 16.1 mph N/A   Clear
7:55 PM 46.4 °F 44.3 °F 12.2 °F 25% 30.00 in 10.0 mi WSW 4.6 mph - N/A   Partly Cloudy
8:15 PM 42.8 °F 41.1 °F 12.2 °F 29% 30.00 in 10.0 mi East 3.5 mph - N/A   Clear
8:35 PM 39.2 °F 33.6 °F 12.2 °F 33% 29.99 in 10.0 mi West 8.1 mph - N/A   Clear
8:55 PM 39.2 °F 35.0 °F 12.2 °F 33% 29.99 in 10.0 mi South 5.8 mph - N/A   Clear
9:15 PM 44.6 °F 37.8 °F 10.4 °F 25% 29.98 in 10.0 mi West 15.0 mph 18.4 mph N/A   Clear
9:35 PM 44.6 °F 36.6 °F 10.4 °F 25% 29.99 in 10.0 mi West 19.6 mph 29.9 mph N/A   Clear
9:55 PM 44.6 °F 38.4 °F 8.6 °F 23% 30.04 in 10.0 mi NNE 12.7 mph 23.0 mph N/A   Clear
10:15 PM 42.8 °F 41.1 °F 12.2 °F 29% 30.06 in 10.0 mi NW 3.5 mph - N/A   Clear
10:55 PM 39.2 °F 32.5 °F 10.4 °F 31% 30.07 in 10.0 mi WNW 10.4 mph - N/A   Clear
11:15 PM 39.2 °F 33.0 °F 10.4 °F 31% 30.07 in 10.0 mi WNW 9.2 mph - N/A   Clear
11:35 PM 37.4 °F 32.8 °F 10.4 °F 33% 30.08 in 10.0 mi WNW 5.8 mph - N/A   Clear
11:55 PM 37.4 °F 31.4 °F 10.4 °F 33% 30.08 in 10.0 mi West 8.1 mph - N/A   Clear